Location: *
(33.9261°S, 61.5671°E)
Time: 01:12:49
(UTC+00:00)

Daily predictions for brighter satellites

Satellite Brightness Start Highest point End
(mag) Time Altitude Azimuth Time Altitude Azimuth Time Altitude Azimuth
USA 281 3.7 00:10:37 10° NE 00:17:02 58° ESE 00:20:57 25° S
USA 267 3.2 00:11:29 10° SE 00:17:41 69° SSW 00:17:41 69° SSW
Delta 2 Rocket 4.2 00:23:43 67° SE 00:23:43 67° SE 00:28:41 10° E
Cosmos 614 Rocket 4.1 00:32:06 64° SSE 00:32:06 64° SSE 00:36:33 10° SSE
CZ-2C R/B 3.9 00:26:51 10° N 00:30:17 40° N 00:30:17 40° N
Cosmos 2366 rocket 3.9 00:28:12 10° NNW 00:34:26 68° W 00:40:49 10° S
CBERS 1 LM4 rocket 4.5 00:35:11 10° NNE 00:40:17 80° ESE 00:41:56 43° S
Cosmos 2297 3.6 00:37:20 10° NNW 00:43:01 88° ENE 00:48:45 10° SSE
Cosmos 2082 Rocket 2.1 00:44:52 48° SSW 00:46:34 84° WNW 00:52:14 10° NNE
Cosmos 1340 Rocket 3.2 00:46:49 45° SSE 00:47:52 63° E 00:51:54 10° NNE
Cosmos 1943 Rocket 2.2 00:54:14 50° W 00:55:05 55° WSW 01:00:35 10° S
TIMED 4.4 01:00:58 50° SSW 01:02:03 77° WNW 01:06:24 10° N
SL-08 R/B 4.5 00:55:42 10° N 01:02:04 82° W 01:08:37 10° S
CZ-4C R/B 2.8 01:00:03 10° S 01:03:39 83° WSW 01:07:06 10° NNW
ATLAS 5 CENTAUR R/B 3.9 01:01:09 32° WNW 01:04:14 58° SW 01:25:46 10° SE
ISS -1.8 01:06:22 20° S 01:06:22 20° S 01:07:48 10° SSE
NOAA 12 4.0 01:00:41 10° NNE 01:06:02 84° WNW 01:11:28 10° SSW
Cosmos 1812 Rocket 4.3 01:03:39 10° N 01:08:02 55° E 01:12:28 10° SSE
X-37B 2.9 01:08:21 15° SSE 01:08:21 15° SSE 01:09:59 10° SE
Meteor 1-27 4.2 01:03:25 10° N 01:09:01 85° E 01:14:41 10° S
Cosmos 407 Rocket 3.8 01:05:24 10° N 01:10:31 66° ENE 01:15:39 10° SSE
COSMOS 2406 3.9 01:12:08 31° W 01:12:20 31° WNW 01:17:18 10° NNW
Cosmos 2369 Rocket 2.4 01:06:44 10° NNW 01:12:20 74° ENE 01:18:02 10° SSE
FALCON 9 DEB 3.2 01:12:39 53° NW 01:12:39 53° NW 01:15:47 10° NNE
Cosmos 2151 3.7 01:09:57 10° S 01:14:12 54° E 01:18:20 10° NNE
Tiangong 1.2 01:15:21 56° NW 01:15:30 57° NNW 01:18:39 10° NE
FengYun 1-2 T 4.2 01:10:09 10° N 01:15:49 78° WNW 01:21:33 10° SSW
Cosmos 2084 4.5 01:17:03 28° WNW 01:17:03 28° WNW 01:20:16 10° N
CZ-2D R/B 4.2 01:16:11 10° NNE 01:19:51 47° ESE 01:23:33 10° S
USA 229 DEB 4.3 01:15:12 19° WNW 01:20:21 41° SW 01:27:22 10° SSE
USA 229 4.3 01:15:10 19° WNW 01:20:25 41° SW 01:27:27 10° SSE
SL-08 R/B 3.5 01:18:56 10° S 01:23:29 44° WSW 01:27:54 10° NW
ADEOS 3.5 01:18:37 10° N 01:23:48 63° WNW 01:29:03 10° SSW
Meteor 2-3 Rocket 3.7 01:19:37 10° SSW 01:25:25 75° W 01:31:12 10° N
H-2A R/B 2.3 01:21:25 10° NNE 01:26:48 78° ESE 01:32:07 10° S
Cosmos 1140 Rocket 3.4 01:22:06 10° NNW 01:27:18 80° WSW 01:32:33 10° SSE
Cosmos 1656 Rocket 3.6 01:28:26 10° NNW 01:33:58 90° WSW 01:39:39 10° SSE
ARGOS 4.2 01:28:52 10° NE 01:34:04 48° ESE 01:39:20 10° S
Cosmos-2242 3.0 01:30:58 10° N 01:35:16 87° E 01:39:36 10° S
Cosmos 1076 Rocket 3.5 01:31:05 10° SSW 01:35:20 55° W 01:39:29 10° N
CZ-4C R/B 4.0 01:34:30 19° WSW 01:37:36 24° SW 01:43:17 10° S
SMAP 3.0 01:33:21 10° N 01:38:00 74° WNW 01:42:44 10° SSW
Cosmos 1727 Rocket 4.4 01:37:16 10° SSW 01:43:01 40° W 01:48:44 10° NNW
Cosmos 1939 Rocket 3.9 01:41:44 10° NNW 01:45:09 26° W 01:47:35 15° SW
Cosmos 1821 Rocket 4.5 01:39:33 10° NW 01:45:21 38° WSW 01:51:10 10° SSW
ATLAS CENTAUR R/B 4.3 01:41:56 17° WSW 01:46:34 41° NW 01:59:06 10° NNE
Cosmos 1869 4.2 01:43:44 10° NW 01:46:59 26° WSW 01:50:18 10° SSW
Cosmos 1932 4.4 01:40:49 10° SSW 01:47:05 77° WNW 01:53:14 10° NNE
Cosmos 1605 Rocket 4.3 01:49:21 10° N 01:55:43 76° E 02:02:12 10° S
CZ-4B R/B 3.4 01:52:54 10° NNW 01:56:29 34° W 01:59:56 10° SSW
Milstar 3 Cent rocket 4.1 01:51:19 10° WNW 01:58:48 66° N 02:15:14 10° E
OAO 3 Rocket 4.4 01:55:10 10° NW 01:59:38 40° NNE 02:04:03 10° E
USA 267 4.5 01:55:25 10° SSE 02:00:14 22° SSW 02:05:02 10° WSW
USA 281 4.4 01:56:52 10° NNW 02:01:45 22° WNW 02:06:43 10° SW
Delta 2 Rocket 4.1 02:00:20 12° WSW 02:05:42 84° S 02:11:09 10° E
CZ-2C R/B 3.1 02:00:58 10° S 02:05:48 35° WSW 02:10:30 10° NW
NOAA 6 4.3 02:02:22 10° N 02:07:24 51° W 02:12:29 10° SSW
Cosmos 1190 Rocket 4.2 02:04:54 10° NW 02:10:03 50° WSW 02:15:15 10° S
Okean O Rocket 3.4 02:07:16 10° NE 02:11:17 33° ESE 02:15:21 10° S
COSMO-SKYMED 1 2.6 02:07:24 10° S 02:11:47 66° WSW 02:16:06 10° NNW
Cosmos 1862 3.3 02:12:43 10° SSW 02:16:47 67° W 02:20:48 10° N
